Overview Statistics Trail Chart Weather Telemetry Raw packets
 

This is the latest recevied weather packets stored in our database for station/object KI5NXU. If no packets are shown the sender has not sent any weather packets the latest 10 day(s).

<< 65 66 67 68 69 70 71 >>
Time Temp. Humidity Pressure Rain* Wind** Luminosity Snow
1787912427 25° C 65% 1017 hPa 0 mm - 0 W/m² -
1787912120 24.44° C 65% 1017 hPa 0 mm - 0 W/m² -
1787911816 24.44° C 65% 1017 hPa 0 mm - 0 W/m² -
1787911510 25° C 64% 1017.1 hPa 0 mm - 0 W/m² -
1787911209 24.44° C 65% 1016.7 hPa 0 mm - 0 W/m² -
1787910907 24.44° C 65% 1017.1 hPa 0 mm - 0 W/m² -
1787910602 24.44° C 64% 1016.9 hPa 0 mm - 0 W/m² -
1787910301 25° C 63% 1016.8 hPa 0 mm - 0 W/m² -
1787909997 24.44° C 63% 1016.7 hPa 0 mm - 0 W/m² -
1787909695 24.44° C 64% 1016.7 hPa 0 mm - 0 W/m² -
1787909394 25° C 63% 1016.7 hPa 0 mm - 0 W/m² -
1787909090 25.56° C 62% 1016.9 hPa 0 mm - 0 W/m² -
1787908789 25.56° C 61% 1016.8 hPa 0 mm - 0 W/m² -
1787908485 25.56° C 60% 1017 hPa 0 mm - 0 W/m² -
1787908183 25.56° C 62% 1016.7 hPa 0 mm - 0 W/m² -
1787907878 26.11° C 60% 1016.9 hPa 0 mm - 0 W/m² -
1787907574 26.11° C 60% 1017 hPa 0 mm - 0 W/m² -
1787907273 26.11° C 59% 1017 hPa 0 mm - 0 W/m² -
1787906970 26.11° C 61% 1017 hPa 0 mm - 0 W/m² -
1787906666 26.67° C 60% 1016.7 hPa 0 mm - 0 W/m² -
1787906366 26.67° C 58% 1016.8 hPa 0 mm - 0 W/m² -
1787906060 26.11° C 59% 1016.8 hPa 0 mm - 0 W/m² -
1787905755 25.56° C 60% 1017 hPa 0 mm - 0 W/m² -
1787905452 26.11° C 60% 1017 hPa 0 mm - 0 W/m² -
1787905147 26.11° C 58% 1016.9 hPa 0 mm - 0 W/m² -

* Rain latest hour (hover to see other rain measurements)
** Current wind speed in m/s (hover to see current wind gust speed)